Miscellaneous Local Product
Issued by NWS Hastings, NE

Home | Current Version | Previous Version | Graphics & Text | Print | Product List | Glossary On
Versions: 1 2 3 4 5 6 7 8 9 10 11 12 13 14 15 16 17 18 19 20 21 22 23 24 25 26 27 28 29 30 31 32 33 34 35 36 37 38 39 40 41 42 43 44 45 46 47 48 49 50
000
AXUS43 KGID 181802
MISGRI

GID CWA HOURLY WEATHER ROUNDUP
NATIONAL WEATHER SERVICE HASTINGS NE
1200 PM CST SAT NOV 18 2017

NOTE: "FAIR" INDICATES FEW OR NO CLOUDS BELOW 12,000 FEET WITH NO
SIGNIFICANT WEATHER AND/OR OBSTRUCTIONS TO VISIBILITY.

...SOUTH CENTRAL NEBRASKA...

CITY           SKY/WX    TMP DP  RH WIND       PRES   REMARKS
GRAND ISLAND   SUNNY     47  32  56 NW26G39   30.09R
KEARNEY        SUNNY     46  30  53 N24G32    30.12R
HASTINGS       SUNNY     47  31  53 NW22G36   30.10R
ORD            SUNNY     45  29  53 N28G36    30.10R
YORK           SUNNY     46  34  61 N20G29    30.05R
AURORA         SUNNY     46  32  58 NW26G35   30.08R
LEXINGTON      SUNNY     47  29  51 N20G31    30.15S
HOLDREGE       SUNNY     46  32  57 NW21G32   30.14R
HEBRON         MOSUNNY   51  34  53 NW23G30   30.06R

...NEBRASKA PANHANDLE...

CITY           SKY/WX    TMP DP  RH WIND       PRES   REMARKS
CHADRON        SUNNY     42  19  39 NW17G25   30.22S
ALLIANCE       SUNNY     41  17  38 NW17      30.20R
SCOTTSBLUFF    SUNNY     42  16  34 W18G26    30.25R
SIDNEY         SUNNY     40  18  41 NW24G35   30.23S WCI  29

...WESTERN AND NORTH CENTRAL NEBRASKA...

CITY           SKY/WX    TMP DP  RH WIND       PRES   REMARKS
VALENTINE      SUNNY     43  24  47 NW23G36   30.13S
AINSWORTH      MOSUNNY   41  28  60 NW25G37   30.12S
ONEILL         PTSUNNY   41  30  65 NW23G32   30.10R
BROKEN BOW     SUNNY     45  29  53 NW23G32   30.13R
IMPERIAL       SUNNY     45  20  36 NW21G33   30.22S
NORTH PLATTE   SUNNY     47  25  42 NW22G31   30.18R
MCCOOK         SUNNY     47  29  49 NW21      30.20R

...EASTERN NEBRASKA...

CITY           SKY/WX    TMP DP  RH WIND       PRES   REMARKS
NORFOLK        SUNNY     44  30  57 NW30G39   30.00R
SO SIOUX CITY  SUNNY     41  30  65 NW24G35   29.98R
TEKAMAH        SUNNY     46  33  60 NW21G29   29.98R
COLUMBUS       SUNNY     47  32  56 NW28G37   30.02S
ALBION         SUNNY     46  31  58 NW31G37   30.06R
OMAHA EPPLEY   MOSUNNY   45  32  60 N23G35    29.97R
OFFUTT AFB     MOSUNNY   46  33  61 NW16G28   29.97R
MILLARD        MOSUNNY   46  35  64 NW16G25   29.99R
LINCOLN        MOSUNNY   50  35  56 N24G33    30.02R
NEBRASKA CITY  PTSUNNY   46  37  69 N24G32    29.97R
BEATRICE       PTSUNNY   49  38  64 N29G36    30.03R
FALLS CITY     CLOUDY    45  29  53 NW23G32   29.96R

...NORTHERN KANSAS...

CITY           SKY/WX    TMP DP  RH WIND       PRES   REMARKS
GOODLAND       SUNNY     45  17  32 N26G37    30.23R
HILL CITY      SUNNY     50  32  50 N28G36    30.19R
NORTON         CLEAR     48  25  40 NW26G32   30.17S
PHILLIPSBURG   SUNNY     52  30  43 NW23G30   30.16S
SMITH CENTER   SUNNY     48  30  49 N29G36    30.13R
HAYS           SUNNY     50  30  46 N22G38    30.16R
RUSSELL        LGT RAIN  51  34  52 N29G41    30.13R
CONCORDIA      MOSUNNY   50  36  58 NW28G36   30.07R
SALINA         MOSUNNY   54  39  57 NW25G36   30.08R
TOPEKA         CLOUDY    48  29  47 NW24G41   29.97R



USA.gov is the U.S. government's official web portal to all federal, state and local government web resources and services.